Home   Weather   Bucaramanga   Past weeks
Flag for Colombia

Past Weather in Bucaramanga, Colombia — Yesterday and Last 2 Weeks

Now
79 °F

Scattered clouds.


Feels Like: 81 °F
Forecast: 84 / 62 °F
Wind: 8 mph from West

Location: Bucaramanga / Palonegro

Current Time: Oct 15, 2019 at 12:25:54 pm

Latest Report: Oct 15, 2019 at 12:00 pm


Visibility: N/A

Pressure: 30.03 "Hg (26.92 "Hg at 956m altitude)

Humidity: 70%

Dew Point: 68 °F

Location of BucaramangaLocation

Past Weather in Bucaramanga — Graph

°F

Bucaramanga Temperature Yesterday

Maximum temperature yesterday: 77 °F (at 12:00 pm)
Minimum temperature yesterday: 64 °F (at 5:00 am)
Average temperature yesterday: 70 °F

High & Low Weather Summary for the Past Weeks

 TemperatureHumidityPressure
High82 °F (Oct 1, 12:00 pm)100% (Sep 30, 7:00 pm)30.11 "Hg (Sep 30, 7:00 pm)
Low64 °F (Oct 4, 6:00 am)51% (Oct 5, 2:00 pm)29.85 "Hg (Oct 10, 4:00 pm)
Average71 °F89%29.98 "Hg
* Reported Sep 30 11:00 am — Oct 15 11:00 am, Bucaramanga. Weather by CustomWeather, © 2019

Note: Actual official high and low records may vary slightly from our data, if they occured in-between our weather recording intervals... More about our weather records

Advertising

Bucaramanga Weather History for the Previous 24 Hours

Scroll right to see more
 ConditionsComfort  
Time TempWeatherWind HumidityBarometerVisibility
11:00 am
Tue, Oct 15
81 °FScattered clouds.7 mph66%30.05 "HgN/A
10:00 am75 °FPartly sunny.2 mph74%30.07 "HgN/A
9:00 am72 °FPartly sunny.7 mph94%30.08 "HgN/A
8:00 am68 °FRain. Broken clouds.6 mph100%30.08 "HgN/A
7:00 am66 °FRain. Broken clouds.3 mph100%30.06 "Hg5 mi
6:00 am66 °FScattered clouds.2 mph100%30.04 "Hg1 mi
11:00 pm
Mon, Oct 14
66 °FPassing clouds.2 mph100%30.07 "HgN/A
10:00 pm66 °FPassing clouds.7 mph100%30.07 "HgN/A
9:00 pm66 °FPartly cloudy.2 mph100%30.04 "HgN/A
8:00 pm66 °FPartly cloudy.3 mph100%30.01 "HgN/A
7:00 pm68 °FPassing clouds.3 mph100%29.99 "HgN/A
6:00 pm68 °FPassing clouds.3 mph100%29.97 "HgN/A
5:00 pm72 °FPartly sunny.7 mph83%29.95 "HgN/A
4:00 pm75 °FPassing clouds.8 mph74%29.95 "HgN/A
3:00 pm73 °FBroken clouds.9 mph83%29.96 "HgN/A
2:00 pm73 °FBroken clouds.10 mph83%29.97 "HgN/A
1:00 pm75 °FBroken clouds.9 mph78%30.00 "HgN/A
12:00 pm77 °FBroken clouds.9 mph74%30.02 "HgN/A
Weather by CustomWeather, © 2019

See weather overview